EHI
0 0 0 0 0 0 0 0 0 0 0 0 0 0 0 0 0 0 0 0 0 0 0 0 0 0 0 0 0 0 0 0 0 0 0 0 0 0 0 0 0 0 0 0
0 0 0 0 0 0 0 0 0 0 0 0 0 0 0 0 0 0 0 0 0 0 0 0 0 0 0 0 0 0 0 0 0 0 0 0 0 0 0 0 0 0 0 0
0 0 0 0 0 0 0 0 0 0 0 0 0 0 0 0 0 0 0 0 0 0 0 0 0 0 0 0 0 0 0 0 0 0 0 0 0 0 0 0 0 0 0 0
0 0 0 0 0 0 0 0 0 0 0 0 0 0 0 0 0 0 0 0 0 0 0 0 0 0 0 0 0 0 0 0 0 0 0 0 0 0 0 0 0 0 0 0
0 0 0 0 0 0 0 0 0 0 0 0 0 0 0 0 0 0 0 0 0 0 0 0 0 0 0 0 0 0 0 0 0 0 0 0 0 0 0 0 0 0 0 0
0 0 0 0 0 0 0 0 0 0 0 0 0 0 0 0 0 0 0 0 0 0 0 0 0 0 0 0 0 0 0 0 0 0 0 0 0 0 0 0 0 0 0 0
0 0 0 0 0 0 0 0 0 0 0 0 0 0 0 0 0 0 0 0 0 0 0 0 0 0 0 0 0 0 0 0 0 0 0 0 0 0 0 0 0 0 0 0
0 0 0 0 0 0 0 0 0 0 0 0 0 0 0 0 0 0 0 0 0 0 0 0 0 0 0 0 0 0 0 0 0 0 0 0 0 0 0 0 0 0 0 0
0 0 0 0 0 0 0 0 0 0 0 0 0 0 0 0 0 0 0 0 0 0 0 0 0 0 0 0 0 0 0 0 0 0 0 0 0 0 0 0 0 0 0 0
0 0 0 0 0 0 0 0 0 0 0 0 0 0 0 0 0 0 0 0 0 0 0 0 0 0 0 0 0 0 0 0 0 0 0 0 0 0 0 0 0 0 0 0
0 0 0 0 0 0 0 0 0 0 0 0 0 0 0 0 0 0 0 0 0 0 0 0 0 0 0 0 0 0 0 0 0 0 0 0 0 0 0 0 0 0 0 0
0 0 0 0 0 0 0 0 0 0 0 0 0 0 0 0 0 0 0 0 0 0 0 0 0 0 0 0 0 0 0 0 0 0 0 0 0 0 0 0 0 0 0 0
0 0 0 0 0 0 0 0 0 0 0 0 0 0 0 0 0 0 0 0 0 0 0 0 0 0 0 0 0 0 0 0 0 0 0 0 0 0 0 0 0 0 0 0
0 0 0 0 0 0 0 0 0 0 0 0 0 0 0 0 0 0 0 0 0 0 0 0 0 0 0 0 0 0 0 0 0 0 0 0 0 0 0 0 0 0 0 0
0 0 0 0 0 0 0 0 0 0 0 0 0 0 0 0 0 0 0 0 0 0 0 0 0 0 0 0 0 0 0 0 0 0 0 0 0 0 0 0 0 0 0 0
0 0 0 0 0 0 0 0 0 0 0 0 0 0 0 0 0 0 0 0 0 0 0 0 0 0 0 0 0 0 0 0 0 0 0 0 0 0 0 0 0 0 0 0
0 0 0 0 0 0 0 0 0 0 0 0 0 0 0 0 0 0 0 0 0 0 0 0 0 0 0 0 0 0 0 0 0 0 0 0 0 0 0 0 0 0 0 0
0 0 0 0 0 0 0 0 0 0 0 0 0 0 0 0 0 0 0 0 0 0 0 0 0 0 0 0 0 0 0 0 0 0 0 0 0 0 0 0 0 0 0 0
0 0 0 0 0 0 0 0 0 0 0 0 0 0 0 0 0 0 0 0 0 0 0 0 0 0 0 0 0 0 0 0 0 0 0 0 0 0 0 0 0 0 0 0
0 0 0 0 0 0 0 0 0 0 0 0 0 0 0 0 0 0 0 0 0 0 0 0 0 0 0 0 0 0 0 0 0 0 0 0 0 0 0 0 0 0 0 0
0 0 0 0 0 0 0 0 0 0 0 0 0 0 0 0 0 0 0 0 0 0 0 0 0 0 0 0 0 0 0 0 0 0 0 0 0 0 0 0 0 0 0 0
0 0 0 0 0 0 0 0 0 0 0 0 0 0 0 0 0 0 0 0 0 0 0 0 0 0 0 0 0 0 0 0 0 0 0 0 0 0 0 0 0 0 0 0
0 0 0 0 0 0 0 0 0 0 0 0 0 0 0 0 0 0 0 0 0 0 0 0 0 0 0 0 0 0 0 0 0 0 0 0 0 0 0 0 0 0 0 0
0 0 0 0 0 0 0 0 0 0 0 0 0 0 0 0 0 0 0 0 0 0 0 0 0 0 0 0 0 0 0 0 0 0 0 0 0 0 0 0 0 0 0 0
0 0 0 0 0 0 0 0 0 0 0 0 0 0 0 0 0 0 0 0 0 0 0 0 0 0 0 0 0 0 0 0 0 0 0 0 0 0 0 0 0 0 0 0
0 0 0 0 0 0 0 0 0 0 0 0 0 0 0 0 0 0 0 0 0 0 0 0 0 0 0 0 0 0 0 0 0 0 0 0 0 0 0 0 0 0 0 0
Wind_Speed
4 5 3 2 1 1 1 0 2 4 3 2 3 5 6 3 1 2 2 2 2 2 1 0 1 2 2 2 2 1 1 0 1 1 1 0 0 0 1 1 2 2 2 2
5 3 3 2 1 1 1 1 3 4 3 2 3 6 5 2 2 3 4 3 3 2 0 0 1 2 2 1 1 1 1 0 0 1 1 1 1 0 0 1 2 2 2 2
2 3 3 1 2 2 2 1 2 3 5 3 3 5 3 2 1 1 2 2 3 4 3 2 2 2 1 1 1 0 0 0 0 1 1 1 1 1 1 2 1 2 2 2
1 3 2 2 2 1 2 2 2 2 2 3 2 3 6 3 3 2 2 2 3 3 3 2 2 1 2 2 1 0 0 0 1 1 1 1 1 1 1 1 1 2 2 1
2 2 2 1 2 1 2 1 1 1 1 2 2 1 8 2 3 4 3 3 3 3 3 2 2 2 2 1 1 0 0 0 1 0 1 1 1 1 1 0 1 2 2 2
2 1 0 1 2 1 1 2 3 3 3 2 2 2 7 3 4 4 3 2 2 1 1 1 0 0 0 0 0 0 0 0 0 0 1 1 2 1 1 0 1 1 2 2
5 3 2 1 2 3 3 4 4 6 4 4 1 2 9 5 3 3 3 3 2 1 1 1 0 1 1 1 1 1 1 1 1 1 1 2 2 2 2 1 1 1 1 2
2 5 3 2 1 0 0 2 3 2 3 5 2 5 8 4 3 2 2 2 1 1 1 2 2 2 2 2 1 1 2 2 2 2 2 2 2 2 2 2 1 1 1 2
1 4 3 1 1 2 1 1 1 3 0 3 5 7 8 2 1 1 1 1 1 2 2 2 2 2 2 2 2 2 2 2 2 2 2 2 2 2 3 2 2 2 2 1
2 3 3 3 1 2 1 3 3 2 0 4 6 5 5 4 2 2 1 2 2 2 2 2 2 2 2 2 2 2 2 3 3 2 2 2 3 3 3 2 2 2 2 1
1 1 4 3 1 2 1 1 2 2 2 2 4 8 5 5 3 2 3 3 3 3 3 3 2 2 2 2 2 2 2 2 3 3 2 2 3 2 2 2 3 3 2 2
1 2 3 5 3 1 2 3 4 2 2 3 3 10 3 3 3 2 3 3 3 3 3 3 2 2 2 2 2 2 2 3 3 3 2 3 2 2 2 3 3 2 2 2
2 2 3 5 3 1 2 2 3 3 2 3 4 9 3 1 2 2 3 3 3 3 3 2 2 2 3 3 3 3 3 3 3 2 2 2 2 2 3 3 3 2 2 2
3 3 5 6 5 2 4 4 4 4 4 5 9 10 8 5 5 5 5 4 4 3 3 3 3 3 4 3 3 3 4 3 2 2 2 3 4 3 3 3 3 3 3 3
3 3 5 7 7 5 7 8 7 9 9 9 9 9 11 7 6 6 5 4 4 4 4 4 4 4 4 3 4 3 3 3 2 2 3 4 4 3 3 3 3 3 3 3
2 2 2 5 4 5 8 11 10 11 9 10 10 13 9 6 4 4 5 5 5 6 5 5 5 4 4 4 4 3 3 3 2 3 4 4 3 3 3 3 3 3 3 3
2 3 1 5 4 5 9 9 10 7 8 8 11 11 4 3 5 6 6 5 6 6 6 5 5 5 5 5 4 4 4 3 2 3 4 3 3 3 3 3 3 3 3 3
5 4 2 3 3 7 7 2 5 6 7 8 8 6 4 6 6 6 6 6 6 5 5 5 4 5 4 4 3 3 3 2 3 3 4 3 3 3 3 3 4 4 3 3
5 5 3 2 4 10 8 3 3 4 6 5 7 7 5 4 4 5 4 4 5 5 5 5 4 4 3 4 3 2 2 3 3 4 4 4 3 4 3 4 4 3 3 3
2 3 3 3 4 8 6 1 1 2 5 2 3 4 3 0 3 6 3 3 4 4 3 3 3 2 3 4 2 2 3 3 5 5 5 4 3 4 4 4 4 3 3 4
3 3 5 6 7 11 7 2 2 2 5 2 2 3 3 4 6 5 5 4 4 4 4 3 2 3 4 3 2 3 4 5 6 4 4 4 4 4 4 4 3 3 3 3
8 7 7 6 7 11 3 3 4 6 3 2 3 3 4 6 6 6 5 5 4 4 4 3 3 4 4 3 3 4 6 6 4 3 3 4 4 4 3 3 3 3 3 3
8 9 6 9 10 5 2 4 4 3 4 4 4 5 5 6 6 6 5 5 5 5 4 3 3 4 4 4 4 6 6 4 3 3 4 4 4 3 3 3 3 2 2 3
5 3 4 6 9 8 7 6 6 5 6 6 6 6 6 7 7 7 6 6 5 5 5 4 3 4 5 5 4 6 5 4 3 4 4 3 3 3 3 3 3 3 3 3
6 5 4 8 8 8 7 6 7 6 6 6 6 6 7 7 7 7 6 6 6 5 5 4 4 5 7 5 5 5 4 4 4 4 4 3 3 3 3 3 4 4 5 5
7 8 8 10 8 7 8 6 6 7 7 7 7 7 6 6 8 7 7 6 5 5 5 5 5 6 6 5 6 5 4 4 4 4 4 3 3 3 3 3 4 6 7 9
Wind_Direction
18 55 28 312 289 189 135 123 304 303 321 347 290 288 292 295 232 217 221 219 227 234 263 128 129 117 105 96 99 108 116 96 111 110 116 111 289 326 7 21 30 29 14 14
37 15 289 284 319 70 62 357 322 316 346 342 310 295 288 272 237 224 217 220 222 231 291 153 148 137 144 139 114 101 102 127 144 153 164 170 165 250 281 355 18 21 22 2
108 281 311 30 25 42 15 258 291 302 333 10 339 315 305 308 302 278 241 228 221 208 214 212 199 191 167 158 156 189 337 356 12 62 85 75 62 28 5 357 2 357 12 358
4 317 360 35 358 17 279 280 275 307 10 326 27 303 294 303 310 299 282 256 234 225 214 207 208 219 216 219 180 178 140 354 359 80 112 135 152 186 254 280 324 339 355 350
326 345 12 1 300 302 247 310 324 324 78 337 353 208 286 331 299 287 278 264 248 227 210 211 218 227 224 201 178 219 114 27 2 58 142 152 179 202 225 277 1 350 348 346
288 299 334 257 308 285 262 25 32 47 62 315 257 183 281 255 238 269 273 272 261 243 215 211 234 214 229 143 142 169 147 285 304 145 149 171 200 210 188 282 338 339 342 329
340 335 342 348 9 8 47 60 19 3 5 265 270 223 255 261 252 242 256 264 254 215 182 188 193 216 235 228 220 212 211 252 260 225 226 213 215 210 210 228 248 302 323 312
349 310 320 360 120 231 348 118 144 215 253 289 302 244 256 271 290 283 266 248 227 207 206 216 226 228 234 240 233 216 230 248 248 240 249 243 228 216 226 220 206 226 248 272
216 278 314 331 312 137 94 102 155 133 221 284 279 286 300 287 311 338 353 2 265 249 247 245 244 241 250 255 247 229 228 247 252 244 247 249 240 224 226 219 204 217 231 250
174 277 301 322 14 36 112 146 95 111 198 286 297 282 264 282 283 317 323 296 285 280 268 263 253 246 248 249 252 239 228 238 252 250 244 248 242 233 227 216 216 224 231 230
142 219 309 342 229 208 119 129 119 116 163 185 288 279 239 233 240 259 274 274 270 268 269 268 273 269 259 261 253 241 237 243 254 250 248 254 259 250 229 225 230 225 224 220
141 123 279 268 261 211 205 198 153 159 239 193 227 272 281 237 243 242 265 280 279 270 270 269 273 279 278 273 271 260 249 246 252 252 248 255 261 257 244 242 242 227 220 220
144 118 339 339 345 357 259 222 181 145 146 183 209 265 306 339 300 273 268 281 286 279 280 285 285 274 268 268 270 266 259 255 258 252 247 257 255 247 247 243 239 229 220 223
126 168 193 222 241 226 253 246 200 166 194 224 230 258 287 294 294 293 288 280 277 270 269 263 267 264 261 259 260 263 265 257 251 242 241 250 251 245 248 247 236 229 220 220
125 224 240 254 261 254 249 246 220 211 211 217 241 244 262 266 264 266 272 279 280 278 274 259 257 261 262 263 263 260 261 259 246 239 246 252 256 252 249 248 239 231 226 226
132 221 269 278 262 253 259 248 231 230 229 238 259 269 261 260 255 260 261 258 262 267 268 266 263 262 260 257 259 262 261 256 239 241 252 259 255 251 250 251 242 231 233 232
184 180 243 275 304 313 268 238 208 212 211 203 231 249 269 271 263 253 250 249 250 258 264 265 264 257 256 254 248 251 257 256 242 247 257 259 248 248 252 252 245 237 235 228
172 170 211 284 340 252 248 224 197 217 239 221 240 260 263 256 269 263 246 241 253 256 257 263 264 263 260 250 244 249 255 250 247 254 258 256 249 251 256 251 248 245 235 231
180 172 197 226 266 279 291 263 185 202 270 228 232 261 273 284 310 292 249 225 239 248 253 257 256 256 255 250 240 237 256 252 254 257 257 254 250 251 250 251 252 248 238 241
139 161 185 200 235 253 258 273 198 138 283 253 208 251 270 327 308 282 277 259 264 268 266 266 271 268 261 259 229 226 250 250 253 254 255 256 247 244 246 248 252 251 239 243
150 181 206 217 240 263 259 258 124 189 260 283 219 253 249 229 239 267 292 288 271 270 273 269 266 264 260 254 221 235 246 250 253 255 256 257 249 244 247 248 246 247 245 247
183 185 199 191 218 253 238 143 186 229 271 277 266 260 255 259 271 280 284 282 280 282 279 270 267 273 270 248 223 241 252 256 257 252 253 254 252 248 248 242 251 246 238 244
205 198 195 202 221 250 213 223 247 256 270 268 266 272 269 273 276 279 280 277 276 272 270 263 254 269 275 255 227 240 257 254 248 251 254 256 258 253 241 236 244 250 238 239
245 204 211 254 264 266 266 265 268 258 259 268 269 271 267 266 270 275 275 273 272 270 268 263 256 263 273 266 250 244 251 244 235 246 255 255 254 262 255 243 236 236 237 239
226 191 221 253 272 291 276 257 259 267 271 277 278 266 257 261 269 268 268 268 267 268 266 256 249 257 265 266 263 259 245 230 236 246 252 253 248 250 254 250 239 238 234 231
199 198 211 245 245 248 267 265 266 272 276 278 281 280 271 256 261 266 265 264 262 263 264 261 257 256 262 260 262 261 243 222 225 244 248 246 246 249 249 259 274 260 254 262